Location: Peterborough
(44.3091°N, 78.3197°W)
Time: 20:04:50
(UTC-04:00)

A-11 Canister half - Pass Details

Date: 24 March 2023
Orbit: 1526 x 1682 km, 47.3° (Epoch: 06 June)

Event Time Altitude Azimuth Distance (km) Brightness Sun altitude
Rises 20:58:46 0° 278° (W) 4,888 13.3 -16.3°
Reaches altitude 10° 21:01:58 10° 280° (W) 3,883 12.4 -16.8°
Maximum altitude 21:11:54 77° 7° (N) 1,642 9.1 -18.5°
Enters shadow 21:18:20 25° 91° (E) 2,797 9.8 -19.5°
